• Processing (Info)

  • MPEC 2022-V142 : 2022 MY3

    The following Minor Planet Electronic Circular may be linked-to from your own Web pages, but must not otherwise be redistributed electronically.

    A form allowing access to any MPEC is at the bottom of this page.


    Read MPEC 2022-V141 Read MPEC 2022-V143


    M.P.E.C. 2022-V142                            Issued 2022 November 13, 14:10 UT
    
         The Minor Planet Electronic Circulars contain information on unusual
             minor planets, routine data on comets and natural satellites,
             and occasional editorial announcements.  They are published
        on behalf of Division F of the International Astronomical Union by the
              Minor Planet Center, Smithsonian Astrophysical Observatory,
                              Cambridge, MA 02138, U.S.A.
    			  
                 Prepared using the Tamkin Foundation Computer Network
    
                                  MPC@CFA.HARVARD.EDU
                URL https://www.minorplanetcenter.net/    ISSN 1523-6714
    
                                    2022 MY3                                 
    
    
                               Revision to MPEC 2022-N16                            
    
    Additional Observations:
         K22M03Y  C2015 03 18.40006411 17 00.994-18 06 53.19         23.83GVEV142F51
         K22M03Y  C2015 03 18.41136011 16 59.650-18 06 52.81         22.58GVEV142F51
         K22M03Y  C2015 03 18.42260511 16 58.329-18 06 52.27         23.12GVEV142F51
         K22M03Y KC2017 10 03.52442503 46 11.043+42 52 15.43         23.05GVEV142F51
         K22M03Y  C2017 11 10.47310402 52 45.640+42 22 28.58         22.62GVEV142F51
         K22M03Y  C2017 11 22.34352002 33 03.108+38 56 34.70         22.91GVEV142F51
         K22M03Y  C2017 11 22.35660202 33 02.002+38 56 19.49         22.78GVEV142F51
         K22M03Y  C2017 11 22.36970802 33 00.839+38 56 04.44         23.16GVEV142F51
    
    Observer details:
    F51 Pan-STARRS 1, Haleakala.  Observers J. Bulger, K. Chambers, T. Lowe, A.
        Schultz, I. Smith.  Measurers S. Chastel, J. Fairlamb, M. Huber, Y.
        Ramanjooloo, R. Wainscoat, R. Weryk.  1.8-m Ritchey-Chretien + CCD.
    
    First and last observations above in comparison with prediction:
    Residuals in seconds of arc (or two decimals in degrees), reference and Delta-T
    150318 F51 0.03- 0.02-    171122 F51 0.02- 0.01-    MPO714649   -0.00 days
    
    Orbital elements:
    2022 MY3                                                 Earth MOID = 0.1876 AU
    Epoch 2022 Aug. 9.0 TT = JDT 2459800.5                  Veres                   
    M  10.64948              (2000.0)            P               Q                  
    n   0.57626596     Peri.  358.34164     +0.49380787     +0.85951337             
    a   1.4301691      Node   301.23003     -0.79602999     +0.38577974             
    e   0.1584769      Incl.    8.87162     -0.34998578     +0.33527713             
    P   1.71           H   22.72          G   0.15           U   1                  
    Residuals in seconds of arc
    150318 F51  0.3-  0.2+    220705 F52  0.0   0.1+    220806 807  0.2+  0.1-
    150318 F51  0.1-  0.0     220705 F52  0.0   0.0     220806 807  0.2+  0.2-
    150318 F51  0.4+  0.0     220705 F52  0.0   0.1+    220807 H21  0.2+  0.7-
    171003 F51  0.4-  0.4+    220706 I52  0.5+  0.4-    220807 H21  0.0   0.4-
    171110 F51  0.5+  0.2+    220706 I52  0.4+  0.1-    220807 H21  0.0   0.2-
    171122 F51  0.2-  0.2-    220706 I52  0.5-  0.3+    220807 H21  0.5+  0.1+
    171122 F51  0.3+  0.2-    220706 I52  0.5+  0.3-    220816 807  0.1+  0.1+
    171122 F51  0.1+  0.0     220720 Z84  0.6-  0.4-    220816 807  0.1+  0.0
    220628 F52  0.1+  0.1-    220721 F52  0.1-  0.0     220816 807  0.0   0.1+
    220628 F52  0.0   0.1+    220721 F52  0.0   0.0     220818 F51  0.0   0.1+
    220628 F52  0.1+  0.1-    220721 F52  0.1-  0.0     220818 F51  0.0   0.0
    220628 F52  0.0   0.1-    220721 F52  0.1-  0.1+    220818 F51  0.0   0.0
    220629 J04  0.6-  0.0     220721 F52  0.2+  0.4+    220818 F51  0.0   0.1+
    220629 568  0.0   0.0     220721 F52  0.0   0.0     220822 F52  0.1-  0.1-
    220629 568  0.0   0.0     220721 F52  0.0   0.1+    220822 F52  0.1-  0.1-
    220629 568  0.0   0.0     220721 F52  0.1+  0.0     220822 F52  0.1-  0.0
    220630 807  0.2+  0.2+    220723 D29  0.5+  0.4-    220901 F51  0.0   0.0
    220630 807  0.6-  0.2-    220723 D29  0.4-  0.0     220901 F51  0.1+  0.0
    220630 807  0.2+  0.1+    220728 F52  0.1-  0.0     220901 F51  0.1-  0.1+
    220701 Y00  0.0   0.0     220728 F52  0.0   0.1+    220914 H21  0.0   0.8-
    220701 Y00  0.0   0.1-    220728 F52  0.0   0.1+    220914 H21  0.3+  0.5-
    220701 Y00  0.0   0.2+    220731 F52  0.1-  0.1+    220914 H21  0.3+  0.4-
    220701 807  0.3-  0.1+    220731 F52  0.0   0.1-    220915 H21  0.1-  0.4+
    220701 807  0.2+  0.0     220731 F52  0.1-  0.1+    220915 H21  0.3-  0.7+
    220701 807  0.1+  0.1+    220801 D29  0.5+  0.2-    220915 H21  0.1-  0.4+
    220703 807  0.2+  0.1-    220801 D29  1.3-  0.9-    220917 H21  0.5+  0.5-
    220703 807  0.3-  0.3-    220801 D29  0.5+  0.6+    220917 H21  0.6+  0.1-
    220703 807  0.1-  0.6-    220801 D29  0.2-  0.0     220917 H21  0.6+  0.4-
    220705 807  0.0   0.1-    220804 D29  0.4+  0.3+    220925 F51  0.0   0.1-
    220705 807  0.1+  0.6+    220804 D29  0.0   0.3+    220925 F51  0.1-  0.1-
    220705 807  0.1-  0.2-    220804 D29  0.0   0.8-    220925 F51  0.1+  0.1+
    220705 F52  0.0   0.0     220806 807  0.4+  0.2-
    
    Ephemeris:
    2022 MY3                 a,e,i = 1.43, 0.16, 9                   q = 1.2035
    Date    TT    R. A. (2000) Decl.     Delta      r    Elong.  Phase     V
    2022 10 14    21 12 30.4 +06 49 27   0.4788  1.3042   119.9    41.5    23.3
    ...
    2022 10 29    21 43 54.3 +07 32 35   0.5765  1.3365   114.1    42.7    23.8
    ...
    2022 11 06    22 01 49.4 +08 01 04   0.6334  1.3545   111.0    43.1    24.1
    ...
    2022 11 12    22 15 37.4 +08 26 02   0.6783  1.3682   108.8    43.2    24.2
    2022 11 13    22 17 56.9 +08 30 30   0.6860  1.3705   108.4    43.3    24.3
    2022 11 14    22 20 16.7 +08 35 03   0.6937  1.3728   108.0    43.3    24.3
    ...
    2022 11 20    22 34 23.4 +09 04 21   0.7410  1.3866   105.7    43.3    24.5
    ...
    2022 11 28    22 53 30.1 +09 48 43   0.8070  1.4051   102.7    43.2    24.7
    ...
    2022 12 13    23 29 57.4 +11 27 25   0.9383  1.4394    96.9    42.8    25.0
    
    A. U. Tomatic                (C) Copyright 2022 MPC           M.P.E.C. 2022-V142
    


    Read MPEC 2022-V141 Read MPEC 2022-V143


    MPEC number:

    Enter an MPEC number in one of the following forms:

    • 1997-B01 (the full form)
    • J97B01 (the packed version of the full form)
    • B01 (the abbreviated form)